Location: Oberwangen
(47.4286°N, 8.9679°E)
Time: 13:00:50
(UTC+00:00)

SL-4 R/B - Visible Passes

Search period start: 22 October 2021 00:00
Search period end: 01 November 2021 00:00
Orbit: 427 x 661 km, 51.6° (Epoch: 21 October)

Date Brightness Start Highest point End Pass type
(mag) Time Alt. Az. Time Alt. Az. Time Alt. Az.
22 Oct 3.5 03:04:09 38° ENE 03:04:09 38° ENE 03:07:02 10° E visible
22 Oct 2.0 04:39:42 19° WNW 04:42:42 71° SSW 04:46:42 10° SE visible
23 Oct 3.8 02:57:24 32° ENE 02:57:24 32° ENE 02:59:51 10° E visible
23 Oct 2.2 04:32:58 24° WNW 04:35:23 58° SSW 04:39:22 10° SE visible
24 Oct 4.2 02:50:45 26° E 02:50:45 26° E 02:52:39 10° E visible
24 Oct 2.4 04:26:19 30° W 04:28:03 47° SW 04:31:57 10° SE visible
25 Oct 4.6 02:44:11 19° E 02:44:11 19° E 02:45:27 10° ESE visible
25 Oct 2.7 04:19:45 33° WSW 04:20:42 38° SW 04:24:29 10° SSE visible
26 Oct 5.0 02:37:43 13° ESE 02:37:43 13° ESE 02:38:13 10° ESE visible
26 Oct 3.0 04:13:17 31° SW 04:13:18 31° SW 04:16:56 10° SSE visible
27 Oct 3.6 04:06:57 22° SSW 04:06:57 22° SSW 04:09:18 10° SSE visible
28 Oct 4.3 04:00:42 14° S 04:00:42 14° S 04:01:31 10° S visible
